Regional Weather Roundup
Issued by NWS

Home | Current Version | Previous Version | Text Only | Print | Product List | Glossary Off
Versions: 1 2 3 4 5 6 7 8 9 10 11 12 13 14 15 16 17 18 19 20 21 22 23 24 25 26 27 28 29 30 31 32 33 34 35 36 37 38 39 40 41 42 43 44 45 46 47 48 49 50

688
ASUS44 KLIX 310810
RWRLA
LOUISIANA WEATHER ROUNDUP
NATIONAL WEATHER SERVICE NEW ORLEANS LA
300 AM CDT FRI OCT 31 2014

NOTE: "FAIR" INDICATES FEW OR NO CLOUDS BELOW 12,000 FEET WITH NO
      SIGNIFICANT WEATHER AND/OR OBSTRUCTIONS TO VISIBILITY.
      SKY/WX - SKY CONDITION AND SIGNIFICANT WEATHER.
      TMP - AIR TEMPERATURE.    DP   - DEWPOINT TEMPERATURE.
      RH  - RELATIVE HUMIDITY.  PRES - PRESSURE.
      HX  - HEAT INDEX.         WCI  - WIND CHILL INDEX.

*  THESE STATIONS ARE NOT NWS OR FAA STATIONS AND ARE NOT UNDER
   NWS QUALITY CONTROL.

LAZ040-048-061>063-065-066-069-310900-
SOUTHEAST LOUISIANA

CITY           SKY/WX    TMP DP  RH WIND       PRES   REMARKS
N.O. AUDUBON     N/A     56  55  96 MISG        N/A
N.O. INTL ARPT PTCLDY    55  48  77 NW5       30.04F
N.O. LAKEFRONT CLEAR     66  49  54 N12       30.04F
N.O. DOWNTOWN* FAIR      63  45  51 CALM      30.04F
SLIDELL        CLEAR     47  42  83 CALM      30.03F
BATON ROUGE    PTCLDY    49  46  90 CALM      30.06F
BOOTHVILLE     CLEAR     66  50  56 VRB6      30.03S
BELLE CHASSE   CLEAR     49  46  90 CALM      30.04S
BOGALUSA*        N/A     45  42  89 CALM      30.06F
NEW ROADS*     FAIR      47  46  94 CALM      30.07S
GONZALES*      FAIR      51  51  97 N3        30.05F
HAMMOND*       CLEAR     48  45  87 CALM      30.06F
HOUMA*         CLEAR     54  47  78 CALM      30.05S
PORT FOURCHON* SUNNY     64  50  59 N9        30.07S

$$

LAZ041-044-053-054-310900-
SOUTHWEST LOUISIANA

CITY           SKY/WX    TMP DP  RH WIND       PRES   REMARKS
LAKE CHARLES   CLEAR     52  49  89 CALM      30.08S
LAFAYETTE      CLEAR     53  51  93 CALM      30.07F
PATTERSON      CLEAR     54  50  87 N3        30.08S
SALT POINT       N/A     59  52  77 N5        30.05F
NEW IBERIA     CLEAR     52  47  83 CALM      30.08R
CHENAULT AIRPK PTCLDY    54  49  83 CALM      30.08S

$$

LAZ027-028-310900-
CENTRAL LOUISIANA

CITY           SKY/WX    TMP DP  RH WIND       PRES   REMARKS
FORT POLK      CLEAR     51  49  93 W1        30.08F
ALEXANDRIA INT CLEAR     49  46  90 CALM      30.06F
ALEXANDRIA     CLEAR     48  46  93 CALM      30.07F

$$

LAZ001-002-310900-
NORTHWEST LOUISIANA

CITY           SKY/WX    TMP DP  RH WIND       PRES   REMARKS
SHREVEPORT     CLEAR     56  47  71 NW9       30.08S
BARKSDALE AFB  CLEAR     49  47  93 NW2       30.08S
DTN SHREVEPORT CLEAR     53  46  77 W3        30.08F

$$

LAZ014-016-310900-
NORTHEAST LOUISIANA

CITY           SKY/WX    TMP DP  RH WIND       PRES   REMARKS
MONROE         CLEAR     53  47  79 CALM      30.06F
TALLULAH       CLEAR     44  42  93 CALM      30.04F

$$




USA.gov is the U.S. government's official web portal to all federal, state and local government web resources and services.